FW2197 Weather Reports


Display with metric or nautical units.
time (UTC)temp
F
wind
direction
speed
MPH
gust
MPH
rain 1hr
in
rain 24hr
in
rain mn
in
humidity
%
barometer
mb
20260502130533 39 0.0 0.0 0.00 0.00 0.00 63 1020.0
20260502123531 40 0.0 0.0 0.00 0.00 0.00 61 1020.2
20260502123033 40 0.0 0.0 0.00 0.00 0.00 60 1020.3
20260502122533 40 0.0 0.0 0.00 0.00 0.00 62 1020.2
20260502122033 40 0.0 0.0 0.00 0.00 0.00 60 1020.3
20260502121533 40 0.0 0.0 0.00 0.00 0.00 61 1020.3
20260502121033 40 0.0 0.0 0.00 0.00 0.00 59 1020.2
20260502120535 41 0.0 0.0 0.00 0.00 0.00 59 1020.2
20260502115533 42 0.0 0.0 0.00 0.00 0.00 57 1020.5
20260502115033 42 0.0 0.0 0.00 0.00 0.00 56 1020.5
20260502114536 43 0.0 0.0 0.00 0.00 0.00 53 1020.7
20260502114031 44 0.0 0.0 0.00 0.00 0.00 52 1020.8
20260502113533 44 0.0 2.0 0.00 0.00 0.00 51 1020.8
20260502113034 43 338 1.0 3.0 0.00 0.00 0.00 53 1020.5
20260502112535 41 0.0 1.0 0.00 0.00 0.00 59 1020.5
20260502112033 41 0.0 1.0 0.00 0.00 0.00 61 1020.2
20260502111534 41 0.0 0.0 0.00 0.00 0.00 60 1020.5
20260502111032 41 0.0 0.0 0.00 0.00 0.00 58 1020.3
20260502110534 42 0.0 0.0 0.00 0.00 0.00 57 1020.6
20260502110033 42 0.0 0.0 0.00 0.00 0.00 56 1020.6
20260502105535 42 0.0 0.0 0.00 0.00 0.00 56 1020.6
20260502105034 41 0.0 0.0 0.00 0.00 0.00 59 1020.2
20260502104554 41 0.0 0.0 0.00 0.00 0.00 59 1020.2
20260502104034 40 0.0 0.0 0.00 0.00 0.00 62 1020.2
20260502103532 40 0.0 0.0 0.00 0.00 0.00 60 1020.1
20260502103031 40 0.0 0.0 0.00 0.00 0.00 59 1020.2
20260502102555 40 0.0 0.0 0.00 0.00 0.00 60 1020.1
20260502102032 40 0.0 0.0 0.00 0.00 0.00 60 1020.1
20260502101554 40 0.0 0.0 0.00 0.00 0.00 61 1020.0
20260502101053 41 0.0 0.0 0.00 0.00 0.00 57 1020.3
20260502100532 41 0.0 0.0 0.00 0.00 0.00 55 1020.3
20260502091035 43 0.0 0.0 0.00 0.00 0.00 55 1020.3
20260502090534 43 0.0 0.0 0.00 0.00 0.00 55 1020.4
20260502071534 47 0.0 0.0 0.00 0.00 0.00 46 1020.7
20260502071034 46 0.0 0.0 0.00 0.00 0.00 46 1020.7
20260502070534 46 0.0 0.0 0.00 0.00 0.00 50 1020.9
20260502070033 46 0.0 0.0 0.00 0.00 0.00 51 1020.8
20260502065534 47 0.0 0.0 0.00 0.00 0.00 48 1020.9
20260502065032 47 0.0 0.0 0.00 0.00 0.00 47 1020.8
20260502064553 48 0.0 0.0 0.00 0.00 0.00 45 1021.1
20260502064031 47 0.0 1.0 0.00 0.00 0.00 45 1020.7
20260502063533 47 0.0 0.0 0.00 0.00 0.00 46 1021.1
20260502063031 47 0.0 0.0 0.00 0.00 0.00 47 1020.7
20260502062535 48 0.0 0.0 0.00 0.00 0.00 48 1020.8
20260502062031 48 0.0 1.0 0.00 0.00 0.00 47 1020.8
20260502061554 47 0.0 0.0 0.00 0.00 0.00 49 1020.8
20260502061032 47 0.0 0.0 0.00 0.00 0.00 50 1020.7
20260502060533 48 0.0 0.0 0.00 0.00 0.00 49 1021.0
20260502060054 48 0.0 0.0 0.00 0.00 0.00 49 1020.7
20260502055534 48 0.0 1.0 0.00 0.00 0.00 48 1020.6
20260502055033 47 0.0 1.0 0.00 0.00 0.00 49 1020.3
20260502054533 46 0.0 0.0 0.00 0.00 0.00 53 1020.3
20260502054033 47 0.0 0.0 0.00 0.00 0.00 53 1020.3
20260502053533 47 0.0 0.0 0.00 0.00 0.00 53 1020.3
20260502053034 47 0.0 0.0 0.00 0.00 0.00 53 1020.4
20260502052555 48 0.0 0.0 0.00 0.00 0.00 52 1020.3
20260502052032 48 0.0 0.0 0.00 0.00 0.00 52 1020.3
20260502051533 48 0.0 0.0 0.00 0.00 0.00 52 1020.3
20260502051033 48 0.0 0.0 0.00 0.00 0.00 52 1020.5
20260502050534 48 0.0 0.0 0.00 0.00 0.00 51 1020.3
20260502050034 48 0.0 0.0 0.00 0.00 0.00 51 1020.2
20260502045535 48 0.0 0.0 0.00 0.00 0.00 51 1020.2
20260502045033 48 0.0 0.0 0.00 0.00 0.00 52 1020.0
20260502044534 48 0.0 0.0 0.00 0.00 0.00 51 1019.9
20260502044031 47 0.0 0.0 0.00 0.00 0.00 52 1020.0
20260502043554 48 0.0 0.0 0.00 0.00 0.00 52 1019.9
20260502043053 48 0.0 0.0 0.00 0.00 0.00 49 1019.9
20260502042533 48 0.0 0.0 0.00 0.00 0.00 49 1019.9
20260502042032 49 0.0 0.0 0.00 0.00 0.00 48 1019.9
20260502041534 49 0.0 0.0 0.00 0.00 0.00 47 1019.8
20260502041112 49 0.0 0.0 0.00 0.00 0.00 47 1019.8
20260502040533 49 0.0 0.0 0.00 0.00 0.00 46 1019.8
20260502040034 50 0.0 0.0 0.00 0.00 0.00 45 1019.7
20260502035533 50 0.0 0.0 0.00 0.00 0.00 44 1019.7
20260502035034 50 0.0 0.0 0.00 0.00 0.00 42 1019.7
20260502034536 51 0.0 0.0 0.00 0.00 0.00 41 1019.6
20260502034053 52 0.0 0.0 0.00 0.00 0.00 40 1019.8
20260502033535 52 0.0 0.0 0.00 0.00 0.00 39 1019.8
20260502033033 52 0.0 0.0 0.00 0.00 0.00 39 1019.7
20260502032535 52 0.0 0.0 0.00 0.00 0.00 39 1019.6
20260502032035 52 0.0 0.0 0.00 0.00 0.00 38 1019.3
20260502031535 53 0.0 0.0 0.00 0.00 0.00 37 1019.6
20260502031034 54 0.0 0.0 0.00 0.00 0.00 36 1019.5
20260502030533 54 0.0 0.0 0.00 0.00 0.00 36 1019.4
20260502030035 54 0.0 0.0 0.00 0.00 0.00 34 1019.4
20260502025533 55 0.0 0.0 0.00 0.00 0.00 33 1019.3
20260502025035 55 0.0 0.0 0.00 0.00 0.00 33 1019.3
20260502024553 56 0.0 0.0 0.00 0.00 0.00 32 1019.3
20260502024034 57 0.0 0.0 0.00 0.00 0.00 32 1019.2
20260502023554 57 0.0 0.0 0.00 0.00 0.00 31 1019.2
20260502023033 58 0.0 0.0 0.00 0.00 0.00 28 1019.5
20260502022714 59 0.0 1.0 0.00 0.00 0.00 28 1019.1
20260502022033 59 0.0 1.0 0.00 0.00 0.00 28 1019.4
20260502021533 59 0.0 2.0 0.00 0.00 0.00 27 1019.3
20260502021031 59 0.0 2.0 0.00 0.00 0.00 28 1019.0
20260502020532 60 0.0 1.0 0.00 0.00 0.00 28 1018.9
20260502020033 60 0.0 3.0 0.00 0.00 0.00 28 1018.6
20260502015533 61 0.0 3.0 0.00 0.00 0.00 28 1018.6
20260502015033 61 113 1.0 3.0 0.00 0.00 0.00 28 1018.5
20260502014533 61 113 1.0 5.0 0.00 0.00 0.00 28 1018.5
20260502014035 61 113 1.0 4.0 0.00 0.00 0.00 28 1018.1
20260502013552 62 113 1.0 5.0 0.00 0.00 0.00 28 1018.1
20260502013033 62 113 2.0 7.0 0.00 0.00 0.00 28 1017.8
20260502012553 62 113 3.0 10.0 0.00 0.00 0.00 28 1017.8
20260502012034 63 113 2.0 6.0 0.00 0.00 0.00 27 1017.7
20260502011534 63 135 2.0 7.0 0.00 0.00 0.00 28 1017.4
20260502011113 63 113 1.0 5.0 0.00 0.00 0.00 28 1017.3
20260502010535 63 158 2.0 6.0 0.00 0.00 0.00 28 1017.5
20260502010031 63 135 3.0 8.0 0.00 0.00 0.00 28 1017.4
20260502005533 64 135 3.0 7.0 0.00 0.00 0.00 28 1017.5
20260502005033 64 135 2.0 5.0 0.00 0.00 0.00 28 1017.4
20260502004535 64 113 3.0 8.0 0.00 0.00 0.00 28 1017.4
20260502004032 64 135 3.0 9.0 0.00 0.00 0.00 27 1017.4
20260502003534 64 135 2.0 6.0 0.00 0.00 0.00 28 1017.4
20260502003114 64 113 4.0 10.0 0.00 0.00 0.00 28 1017.4
20260502002555 64 113 3.0 11.0 0.00 0.00 0.00 27 1017.4
20260502002032 65 135 2.0 7.0 0.00 0.00 0.00 27 1017.5
20260502001534 64 135 3.0 9.0 0.00 0.00 0.00 28 1017.5
20260502001113 64 113 3.0 7.0 0.00 0.00 0.00 27 1017.8
20260502000534 64 135 2.0 7.0 0.00 0.00 0.00 27 1017.9
20260502000053 65 135 2.0 7.0 0.00 0.00 0.00 27 1017.9
20260501235533 65 135 2.0 7.0 0.00 0.00 0.00 27 1017.9
20260501235033 65 135 3.0 10.0 0.00 0.00 0.00 27 1017.8
20260501234534 65 135 1.0 6.0 0.00 0.00 0.00 26 1017.8
20260501234034 65 113 2.0 9.0 0.00 0.00 0.00 27 1018.2
20260501233534 65 135 3.0 8.0 0.00 0.00 0.00 26 1018.2
20260501233032 65 135 2.0 9.0 0.00 0.00 0.00 26 1017.9
20260501232534 65 113 3.0 11.0 0.00 0.00 0.00 26 1018.2
20260501232033 65 135 3.0 8.0 0.00 0.00 0.00 26 1017.9
20260501231533 65 135 2.0 9.0 0.00 0.00 0.00 26 1017.9
20260501231114 64 113 2.0 9.0 0.00 0.00 0.00 27 1017.9
20260501230534 64 113 4.0 10.0 0.00 0.00 0.00 26 1018.0
20260501230034 64 113 3.0 10.0 0.00 0.00 0.00 26 1017.9
20260501225531 64 135 2.0 9.0 0.00 0.00 0.00 26 1017.9
20260501225034 64 135 3.0 8.0 0.00 0.00 0.00 25 1018.0
20260501224534 65 135 3.0 9.0 0.00 0.00 0.00 26 1018.0
20260501224035 65 158 2.0 6.0 0.00 0.00 0.00 25 1018.4
20260501223532 64 158 3.0 11.0 0.00 0.00 0.00 25 1018.4
20260501223035 64 135 3.0 7.0 0.00 0.00 0.00 25 1018.4
20260501222532 65 113 3.0 8.0 0.00 0.00 0.00 24 1018.4
20260501222035 64 113 4.0 10.0 0.00 0.00 0.00 25 1018.5
20260501221534 65 135 2.0 6.0 0.00 0.00 0.00 24 1018.5
20260501221033 65 135 2.0 5.0 0.00 0.00 0.00 25 1018.6
20260501220534 65 135 3.0 11.0 0.00 0.00 0.00 23 1018.6
20260501215531 65 135 2.0 8.0 0.00 0.00 0.00 24 1019.0
20260501215034 65 113 2.0 9.0 0.00 0.00 0.00 24 1019.0
20260501214552 65 113 2.0 8.0 0.00 0.00 0.00 24 1019.1
20260501214115 65 135 2.0 5.0 0.00 0.00 0.00 25 1019.1
20260501213535 64 135 2.0 8.0 0.00 0.00 0.00 24 1019.1
20260501213035 65 135 4.0 8.0 0.00 0.00 0.00 24 1019.2
20260501212534 65 135 2.0 6.0 0.00 0.00 0.00 24 1019.2
20260501212033 65 113 1.0 8.0 0.00 0.00 0.00 24 1019.2
20260501211533 65 158 2.0 7.0 0.00 0.00 0.00 25 1019.2
20260501211033 64 113 2.0 8.0 0.00 0.00 0.00 24 1019.2
20260501210534 65 113 1.0 5.0 0.00 0.00 0.00 24 1019.6
20260501210054 65 135 2.0 8.0 0.00 0.00 0.00 24 1019.6
20260501205554 64 158 1.0 6.0 0.00 0.00 0.00 24 1019.5
20260501205054 64 113 2.0 7.0 0.00 0.00 0.00 25 1019.5
20260501204532 64 158 4.0 8.0 0.00 0.00 0.00 23 1019.9
20260501204034 65 135 2.0 8.0 0.00 0.00 0.00 24 1019.9
20260501203552 64 225 1.0 5.0 0.00 0.00 0.00 23 1019.9
20260501203115 64 135 1.0 6.0 0.00 0.00 0.00 23 1020.2
20260501202533 64 135 3.0 8.0 0.00 0.00 0.00 23 1020.1
20260501202034 64 135 1.0 5.0 0.00 0.00 0.00 23 1020.1
20260501201533 64 113 2.0 6.0 0.00 0.00 0.00 23 1019.8
20260501201034 65 68 1.0 6.0 0.00 0.00 0.00 23 1020.2
20260501200556 64 68 1.0 4.0 0.00 0.00 0.00 24 1020.3
20260501200035 64 113 2.0 7.0 0.00 0.00 0.00 23 1020.2
20260501195532 64 113 2.0 7.0 0.00 0.00 0.00 23 1020.3
20260501195036 64 68 1.0 9.0 0.00 0.00 0.00 24 1020.3
20260501194532 64 135 1.0 4.0 0.00 0.00 0.00 23 1020.4
20260501194054 64 135 1.0 3.0 0.00 0.00 0.00 23 1020.4
20260501193534 64 113 1.0 5.0 0.00 0.00 0.00 23 1020.0
20260501193035 64 113 1.0 3.0 0.00 0.00 0.00 22 1020.0
20260501192554 65 0.0 5.0 0.00 0.00 0.00 24 1020.1
20260501192034 63 0.0 2.0 0.00 0.00 0.00 24 1020.2
20260501191532 62 158 2.0 6.0 0.00 0.00 0.00 23 1020.2
20260501191033 63 113 1.0 7.0 0.00 0.00 0.00 24 1020.6
20260501190534 63 0.0 3.0 0.00 0.00 0.00 25 1020.6
20260501190034 62 135 1.0 5.0 0.00 0.00 0.00 25 1020.7
20260501185555 62 113 2.0 7.0 0.00 0.00 0.00 24 1020.7
20260501185032 62 135 1.0 3.0 0.00 0.00 0.00 24 1020.8
20260501184533 62 0.0 3.0 0.00 0.00 0.00 26 1020.8
20260501184035 62 113 2.0 9.0 0.00 0.00 0.00 24 1021.1
20260501183534 63 113 1.0 5.0 0.00 0.00 0.00 25 1021.5
20260501183035 62 0.0 2.0 0.00 0.00 0.00 23 1021.2
20260501182534 62 113 1.0 5.0 0.00 0.00 0.00 24 1020.9
20260501182033 61 113 1.0 5.0 0.00 0.00 0.00 24 1020.9
20260501181535 61 0.0 4.0 0.00 0.00 0.00 22 1020.9
20260501181033 62 0.0 4.0 0.00 0.00 0.00 22 1021.2
20260501180534 62 0.0 2.0 0.00 0.00 0.00 23 1021.3
20260501180033 62 0.0 3.0 0.00 0.00 0.00 28 1021.5
20260501175534 61 0.0 2.0 0.00 0.00 0.00 29 1021.5
20260501175032 60 0.0 2.0 0.00 0.00 0.00 28 1021.5
20260501174532 60 0.0 3.0 0.00 0.00 0.00 29 1021.6
20260501174032 60 135 1.0 5.0 0.00 0.00 0.00 29 1021.6
20260501173615 60 0.0 2.0 0.00 0.00 0.00 30 1021.7
20260501173053 60 0.0 1.0 0.00 0.00 0.00 31 1021.7
20260501172534 59 0.0 3.0 0.00 0.00 0.00 30 1021.7
20260501172034 58 0.0 0.0 0.00 0.00 0.00 32 1021.4
20260501171533 59 0.0 4.0 0.00 0.00 0.00 30 1021.7
20260501171032 60 0.0 0.0 0.00 0.00 0.00 32 1021.8
20260501170534 59 0.0 1.0 0.00 0.00 0.00 32 1021.8
20260501170032 59 0.0 1.0 0.00 0.00 0.00 32 1021.8
20260501165536 58 0.0 1.0 0.00 0.00 0.00 33 1021.4
20260501165035 57 0.0 2.0 0.00 0.00 0.00 33 1021.5
20260501164533 57 0.0 2.0 0.00 0.00 0.00 32 1021.4
20260501164032 58 0.0 2.0 0.00 0.00 0.00 33 1021.4
20260501163535 57 0.0 1.0 0.00 0.00 0.00 33 1021.5
20260501163032 57 0.0 1.0 0.00 0.00 0.00 33 1021.5
20260501162555 56 0.0 1.0 0.00 0.00 0.00 34 1021.4
20260501162033 56 0.0 3.0 0.00 0.00 0.00 35 1021.2
20260501161533 56 0.0 2.0 0.00 0.00 0.00 35 1021.1
20260501161032 56 0.0 2.0 0.00 0.00 0.00 36 1020.8
20260501160534 56 0.0 1.0 0.00 0.00 0.00 37 1020.5
20260501160033 55 0.0 1.0 0.00 0.00 0.00 37 1020.5
20260501155534 55 0.0 1.0 0.00 0.00 0.00 39 1020.5
20260501155031 54 0.0 1.0 0.00 0.00 0.00 38 1020.2
20260501154034 54 0.0 0.0 0.00 0.00 0.00 38 1020.4
20260501153534 54 0.0 1.0 0.00 0.00 0.00 37 1020.3
20260501153034 54 0.0 1.0 0.00 0.00 0.00 39 1020.4
20260501152533 54 0.0 1.0 0.00 0.00 0.00 40 1020.7
20260501152031 53 0.0 0.0 0.00 0.00 0.00 41 1020.4
20260501151533 53 0.0 1.0 0.00 0.00 0.00 39 1020.4
20260501151033 53 0.0 0.0 0.00 0.00 0.00 40 1020.7
20260501150554 53 0.0 0.0 0.00 0.00 0.00 41 1020.7
20260501150033 53 0.0 0.0 0.00 0.00 0.00 41 1020.6
20260501145534 53 0.0 0.0 0.00 0.00 0.00 41 1020.7
20260501145033 52 0.0 0.0 0.00 0.00 0.00 41 1020.6
20260501144531 51 0.0 0.0 0.00 0.00 0.00 42 1020.3
20260501144035 51 0.0 0.0 0.00 0.00 0.00 43 1020.3
20260501143534 50 0.0 0.0 0.00 0.00 0.00 45 1020.3
20260501143033 50 0.0 0.0 0.00 0.00 0.00 45 1020.2
20260501142531 49 0.0 0.0 0.00 0.00 0.00 47 1020.3
20260501142034 49 0.0 0.0 0.00 0.00 0.00 46 1020.1
20260501141533 49 0.0 0.0 0.00 0.00 0.00 49 1020.2
20260501141033 48 0.0 0.0 0.00 0.00 0.00 52 1020.2
20260501140535 47 0.0 0.0 0.00 0.00 0.00 53 1019.8
20260501135534 45 0.0 0.0 0.00 0.00 0.00 56 1019.7
20260501135033 44 0.0 0.0 0.00 0.00 0.00 57 1019.4
20260501134533 43 0.0 0.0 0.00 0.00 0.00 61 1019.3